Regional Weather Roundup
Issued by NWS Goodland, KS

Home | Current Version | Previous Version | Text Only | Print | Product List | Glossary Off
Versions: 1 2 3 4 5 6 7 8 9 10 11 12 13 14 15 16 17 18 19 20 21 22 23 24 25 26 27 28 29 30 31 32 33 34 35 36 37 38 39 40 41 42 43 44 45 46 47 48 49 50

000
ASUS43 KGLD 060008
RWRGLD

GOODLAND FORECAST AREA HOURLY WEATHER ROUNDUP
NATIONAL WEATHER SERVICE GOODLAND KS
600 PM MDT SUN JUL 05 2015

...OFFICIAL OBSERVATIONS...

CITY           SKY/WX    TMP DP  RH WIND       PRES   REMARKS
GOODLAND KS    CLOUDY    95  54  25 S24G30    29.77F
HILL CITY KS   PTSUNNY   98  58  26 S24G32    29.75R
IMPERIAL NEB   CLOUDY    96  47  18 S15G23    29.73F
MCCOOK NEB     CLOUDY    83  59  44 E21G29    29.73R
AKRON CO       LGT RAIN  75  61  61 N23       29.89R
BURLINGTON CO  PTSUNNY   95  48  20 W14       29.82F
LIMON CO       PTSUNNY   84  58  40 CALM      29.94S
$$

...UNOFFICIAL OBSERVATIONS...

CITY           SKY/WX    TMP DP  RH WIND       PRES   REMARKS
COLBY KS       MOSUNNY   97  57  26 S21       29.77S
GOVE KS          N/A     94  32  11 MISG        N/A
NORTON KS      SUNNY     93  52  24 S17G23    29.72
SHARON SPRINGS   N/A     97  57  26 S25G36      N/A
KIT CARSON CO    N/A     95  59  29 MISG        N/A
$$


USA.gov is the U.S. government's official web portal to all federal, state and local government web resources and services.